Regional Weather Roundup
Issued by NWS

Home | Current Version | Previous Version | Graphics & Text | Print | Product List | Glossary On
Versions: 1 2 3 4 5 6 7 8 9 10 11 12 13 14 15 16 17 18 19 20 21 22 23 24 25 26 27 28 29 30 31 32 33 34 35 36 37 38 39 40 41 42 43 44 45 46 47 48 49 50
745
ASUS45 KCYS 291710
RWRWY

WYOMING REGIONAL WEATHER ROUNDUP
NATIONAL WEATHER SERVICE CHEYENNE WY
1100 AM MDT FRI APR 29 2016

NOTE:  "FAIR" INDICATES FEW OR NO CLOUDS BELOW 12,000 FEET
WITH NO SIGNIFICANT WEATHER AND/OR OBSTRUCTIONS TO VISIBILITY.

WYZ001-291800-
YELLOWSTONE NATIONAL PARK

CITY           SKY/WX    TMP DP  RH WIND       PRES   REMARKS
LK YELLOWSTONE   N/A     35  21  56 VRB3      29.93S
W YELLOWSTONE  NOT AVBL

$$
WYZ002>013-054>058-071-098>099-291800-
NORTHERN WYOMING

CITY           SKY/WX    TMP DP  RH WIND       PRES   REMARKS
JACKSON        PTSUNNY   43  28  56 S3        29.90F
CODY           CLOUDY    39  28  65 CALM      29.96S
GREYBULL       CLOUDY    47  28  47 S5        29.97F
WORLAND        CLOUDY    44  28  53 VRB3      29.97F
SHERIDAN       CLOUDY    44  26  49 SE3       30.01F
BUFFALO          N/A    N/A N/A N/A MISG      30.00F
GILLETTE       CLOUDY    41  32  70 SE7       30.02F
HULETT         CLOUDY    41  36  81 E5        30.06F
NEWCASTLE      CLOUDY    37  32  81 NW6       30.04F WCI  33

$$
WYZ014>020-022>026-101>103-291800-
CENTRAL WYOMING

CITY           SKY/WX    TMP DP  RH WIND       PRES   REMARKS
BIG PINEY      CLOUDY    37  24  59 CALM      29.93S
PINEDALE       CLOUDY    34  25  69 W3        29.93S
DUBOIS         CLOUDY    30  23  74 CALM      29.93S
LANDER         LGT SNOW  34  30  85 W3        29.96S FOG
RIVERTON       CLOUDY    39  29  67 E6        29.97S WCI  35
CASPER         CLOUDY    38  31  76 E13       29.96F WCI  30
DOUGLAS        CLOUDY    37  33  85 SE6       30.01R WCI  32

$$
WYZ021-027>030-104>119-291800-
SOUTHERN WYOMING

CITY           SKY/WX    TMP DP  RH WIND       PRES   REMARKS
EVANSTON       CLOUDY    34  26  72 E8        29.91S WCI  27
KEMMERER       CLOUDY    32  27  80 E13G18    29.92F WCI  22
FORT BRIDGER   CLOUDY    32  32 100 E7        29.95S WCI  26
ROCK SPRINGS   LGT SNOW  33  28  81 NE13      29.92F WCI  24
DIXON          CLOUDY    46  32  60 NW10      29.88R
RAWLINS        CLOUDY    36  30  79 NE13      29.89S WCI  27
SARATOGA       CLOUDY    37  32  81 CALM      29.88S
LARAMIE        CLOUDY    32  27  81 SE16      29.90R WCI  21
CHEYENNE       LGT SNOW  33  32  96 SE6       29.95S FOG     WCI  28
TORRINGTON     CLOUDY    41  33  73 E5        29.99F
PINE BLUFFS    CLOUDY    34  34 100 E6        29.98F WCI  29

$$




USA.gov is the U.S. government's official web portal to all federal, state and local government web resources and services.